Showing default

KUIPER-00129, 65958

Orbit data source: Space-Track

KUIPER-00129, 65958 is a payload satellite owned by Kuiper Systems (US) in LEO that was launched on Tue, 14 Oct 2025 UTC via an FALCON 9 launch vehicle from the Air Force Eastern Test Range (AFETR). Payload-class satellites include a variety of spacecraft equipped with specific instruments for various scientific and technological missions. These include communications satellites like Starlink; space stations such as the ISS; scientific satellites like the Hubble; Earth observation satellites from companies like Planet Labs, Umbra, and HawkEye 360; GPS; miniature CubeSats for education and research; and military/defense satellites.

Loading next visibility...
Identifier
65958, 2025-228M
Orbit
LEO
Country
Flag of USUS
Related business
Manufacturer
Kuiper Systems
Mission
Operational Commercial Communications
Bus & Motor
KUIPER, Unknown motor
Mass
~490 kg wet, ~490 kg dry
Launch date (UTC)
2025-10-14 (8 months ago)
Launch vehicle
FALCON 9
Launch site
Air Force Eastern Test Range (AFETR)
Object type
Payload
Rocket body
Debris
Shape & HBR
Box + 2 Pan, 3.4 m
Radar Cross Section
2.326 m², Large (>1 m²)

Expand to show TLE details & history
Last TLE update: 11 hours ago

TLE from 11 hours ago
0 KUIPER-00129
1 65958U 25228M   26171.38795671  .00000303  00000-0  68747-4 0  9997
2 65958  51.9000 253.9760 0000345 120.5370 239.5626 14.79931641 38618
Epoch: 2026-06-20T09:18Z
TLE epoch observation values (Epoch: 2026-06-20T09:18:39.459Z)
Latitude
-0.00007°
Longitude
-154.29177°
Altitude
630.409 km
Speed
7.544 km/s
True Right ascension
16h 55m 54s
True Declination
0° 00' 00"
Sunlit
Object was in full shadow at epoch
Visualization orbit readout
Latitude
Unknown
Longitude
Unknown
Altitude
Unknown
Speed
Unknown
Apparent Right ascension
Unknown
Apparent Declination
Unknown
Sunlit
N/A
Visualization observer readout
Local Sidereal Time
07:15:21
Azimuth
Unknown
Elevation
Unknown
Doppler factor
Unknown
Orbital elements
Apogee altitude
630.233 km
Perigee altitude
629.749 km
Semi-major axis
7,008.128 km
Eccentricity
0.00003
Inclination
51.9°
RAAN
253.976°
Arg. of periapsis
120.537°
True anomaly
239.55919°
Mean anomaly
239.5626°
Eccentric anomaly
239.5609°
Mean motion
3.69948 °/min
Orbital period
97.31 mins
BSTAR
0.000068747
Loading maneuver chart data...
Computing Atmospheric mass density...
Loading historical data...
Loading historical data...
Loading historical data...
Loading historical data...
Loading historical data...
Loading historical data...
Loading historical data...

Documentation

Showing up to 5 results
|